• în România
  • Lista ţărilor
  • Pe 7 zile
  • Temperatura apei
  • Hartă satelitară
  • Meteo pe hartă
  • Widget-uri
  • user-avatar
    Intrare

    Meteo pe oră la Spring Garden

    Astăzi, 18 August, Sâmbătă

    Timp Temperatura Precipitaţii Vânt Presiune Umiditate
    00:00 +16°C° 0 mm 1 m/s 650 mmHg 40%
    01:00 +16°C° 0 mm 1 m/s 650 mmHg 41%
    02:00 +16°C° 0 mm 1 m/s 650 mmHg 40%
    03:00 +15°C° 0 mm 1 m/s 650 mmHg 39%
    04:00 +15°C° 0 mm 1 m/s 650 mmHg 39%
    05:00 +16°C° 0 mm 1 m/s 651 mmHg 36%
    06:00 +19°C° 0 mm 1 m/s 651 mmHg 33%
    07:00 +21°C° 0 mm 1 m/s 652 mmHg 31%
    08:00 +25°C° 0 mm 1 m/s 653 mmHg 25%
    09:00 +28°C° 0 mm 1 m/s 654 mmHg 19%
    10:00 +32°C° 0 mm 1 m/s 655 mmHg 13%
    11:00 +33°C° 0 mm 1 m/s 655 mmHg 12%
    12:00 +34°C° 0 mm 2 m/s 654 mmHg 11%
    13:00 +35°C° 0 mm 2 m/s 654 mmHg 10%
    14:00 +35°C° 0 mm 3 m/s 654 mmHg 10%
    15:00 +34°C° 0 mm 3 m/s 653 mmHg 10%
    16:00 +34°C° 0 mm 3 m/s 652 mmHg 11%
    17:00 +29°C° 0 mm 2 m/s 651 mmHg 16%
    18:00 +26°C° 0 mm 2 m/s 650 mmHg 21%
    19:00 +22°C° 0 mm 1 m/s 649 mmHg 27%
    20:00 +21°C° 0 mm 1 m/s 649 mmHg 28%
    21:00 +20°C° 0 mm 1 m/s 649 mmHg 29%
    22:00 +19°C° 0 mm 1 m/s 649 mmHg 30%
    23:00 +18°C° 0 mm 1 m/s 649 mmHg 30%

    Mâine, 19 August, Duminică

    Timp Temperatura Precipitaţii Vânt Presiune Umiditate
    00:00 +18°C° 0 mm 1 m/s 649 mmHg 30%
    01:00 +16°C° 0 mm 1 m/s 649 mmHg 31%
    02:00 +16°C° 0 mm 1 m/s 648 mmHg 30%
    03:00 +16°C° 0 mm 1 m/s 648 mmHg 30%
    04:00 +15°C° 0 mm 1 m/s 648 mmHg 29%
    05:00 +18°C° 0 mm 1 m/s 649 mmHg 28%
    06:00 +20°C° 0 mm 1 m/s 649 mmHg 27%
    07:00 +22°C° 0 mm 1 m/s 650 mmHg 26%
    08:00 +25°C° 0 mm 1 m/s 651 mmHg 21%
    09:00 +29°C° 0 mm 1 m/s 651 mmHg 16%
    10:00 +33°C° 0 mm 1 m/s 652 mmHg 11%
    11:00 +34°C° 0 mm 2 m/s 652 mmHg 11%
    12:00 +35°C° 0 mm 3 m/s 651 mmHg 10%
    13:00 +35°C° 0 mm 4 m/s 651 mmHg 9%
    14:00 +35°C° 0 mm 4 m/s 650 mmHg 10%
    15:00 +34°C° 0 mm 4 m/s 650 mmHg 11%
    16:00 +34°C° 0 mm 4 m/s 649 mmHg 11%
    17:00 +29°C° 0 mm 3 m/s 648 mmHg 16%
    18:00 +26°C° 0 mm 2 m/s 647 mmHg 21%
    19:00 +22°C° 0 mm 1 m/s 646 mmHg 25%
    20:00 +21°C° 0 mm 1 m/s 646 mmHg 27%
    21:00 +20°C° 0 mm 1 m/s 646 mmHg 28%
    22:00 +18°C° 0 mm 1 m/s 646 mmHg 29%
    23:00 +18°C° 0 mm 1 m/s 646 mmHg 29%

    Poimâine, 20 August, Luni

    Timp Temperatura Precipitaţii Vânt Presiune Umiditate
    00:00 +16°C° 0 mm 1 m/s 646 mmHg 30%
    01:00 +16°C° 0 mm 1 m/s 646 mmHg 30%
    02:00 +16°C° 0 mm 1 m/s 646 mmHg 30%
    03:00 +15°C° 0 mm 1 m/s 645 mmHg 30%
    04:00 +15°C° 0 mm 1 m/s 645 mmHg 31%
    05:00 +16°C° 0 mm 1 m/s 646 mmHg 30%
    06:00 +19°C° 0 mm 1 m/s 647 mmHg 29%
    07:00 +21°C° 0 mm 1 m/s 647 mmHg 27%
    08:00 +24°C° 0 mm 1 m/s 648 mmHg 22%
    09:00 +27°C° 0 mm 2 m/s 649 mmHg 17%
    10:00 +31°C° 0 mm 2 m/s 650 mmHg 11%
    11:00 +31°C° 0 mm 3 m/s 650 mmHg 11%
    12:00 +33°C° 0 mm 3 m/s 649 mmHg 10%
    13:00 +34°C° 0 mm 4 m/s 649 mmHg 9%
    14:00 +33°C° 0 mm 4 m/s 649 mmHg 10%
    15:00 +33°C° 0 mm 4 m/s 648 mmHg 11%
    16:00 +33°C° 0 mm 4 m/s 648 mmHg 11%
    17:00 +28°C° 0 mm 3 m/s 647 mmHg 16%
    18:00 +25°C° 0 mm 2 m/s 646 mmHg 22%
    19:00 +21°C° 0 mm 1 m/s 646 mmHg 27%
    20:00 +20°C° 0 mm 1 m/s 646 mmHg 28%
    21:00 +19°C° 0 mm 1 m/s 646 mmHg 30%
    22:00 +18°C° 0 mm 1 m/s 646 mmHg 31%
    23:00 +16°C° 0 mm 1 m/s 646 mmHg 31%

    21 August, Marţi

    Timp Temperatura Precipitaţii Vânt Presiune Umiditate
    00:00 +16°C° 0 mm 1 m/s 646 mmHg 32%
    01:00 +16°C° 0 mm 1 m/s 646 mmHg 33%
    02:00 +15°C° 0 mm 1 m/s 646 mmHg 33%
    03:00 +15°C° 0 mm 1 m/s 646 mmHg 34%
    04:00 +15°C° 0 mm 1 m/s 646 mmHg 35%
    05:00 +16°C° 0 mm 1 m/s 647 mmHg 34%
    06:00 +19°C° 0 mm 1 m/s 648 mmHg 32%
    07:00 +21°C° 0 mm 1 m/s 649 mmHg 31%
    08:00 +24°C° 0 mm 1 m/s 650 mmHg 25%
    09:00 +27°C° 0 mm 2 m/s 650 mmHg 20%
    10:00 +30°C° 0 mm 2 m/s 651 mmHg 15%
    11:00 +31°C° 0 mm 3 m/s 651 mmHg 14%
    12:00 +33°C° 0 mm 3 m/s 651 mmHg 13%
    13:00 +34°C° 0 mm 4 m/s 651 mmHg 13%
    14:00 +33°C° 0 mm 4 m/s 651 mmHg 13%
    15:00 +33°C° 0 mm 4 m/s 651 mmHg 14%
    16:00 +32°C° 0 mm 4 m/s 650 mmHg 14%
    17:00 +28°C° 0 mm 3 m/s 650 mmHg 20%
    18:00 +24°C° 0 mm 2 m/s 649 mmHg 26%
    19:00 +21°C° 0 mm 1 m/s 648 mmHg 32%
    20:00 +20°C° 0 mm 1 m/s 648 mmHg 34%
    21:00 +19°C° 0 mm 1 m/s 648 mmHg 36%
    22:00 +18°C° 0 mm 1 m/s 649 mmHg 37%
    23:00 +16°C° 0 mm 1 m/s 648 mmHg 38%

    22 August, Miercuri

    Timp Temperatura Precipitaţii Vânt Presiune Umiditate
    00:00 +16°C° 0 mm 1 m/s 648 mmHg 38%
    01:00 +16°C° 0 mm 1 m/s 648 mmHg 39%
    02:00 +15°C° 0 mm 1 m/s 648 mmHg 39%
    03:00 +15°C° 0 mm 1 m/s 648 mmHg 39%
    04:00 +15°C° 0 mm 1 m/s 648 mmHg 39%
    05:00 +18°C° 0 mm 1 m/s 649 mmHg 37%
    06:00 +19°C° 0 mm 1 m/s 650 mmHg 35%
    07:00 +21°C° 0 mm 1 m/s 650 mmHg 33%
    08:00 +24°C° 0 mm 2 m/s 651 mmHg 28%
    09:00 +27°C° 0 mm 2 m/s 652 mmHg 22%
    10:00 +30°C° 0 mm 3 m/s 652 mmHg 17%
    11:00 +32°C° 0 mm 4 m/s 652 mmHg 16%
    12:00 +32°C° 0 mm 4 m/s 652 mmHg 15%
    13:00 +33°C° 0 mm 5 m/s 652 mmHg 14%
    14:00 +33°C° 0 mm 5 m/s 651 mmHg 15%
    15:00 +32°C° 0 mm 5 m/s 651 mmHg 16%
    16:00 +30°C° 0 mm 5 m/s 650 mmHg 16%
    17:00 +27°C° 0 mm 4 m/s 650 mmHg 22%
    18:00 +24°C° 0 mm 2 m/s 649 mmHg 28%
    19:00 +21°C° 0 mm 1 m/s 648 mmHg 33%
    20:00 +20°C° 0 mm 1 m/s 648 mmHg 35%
    21:00 +19°C° 0 mm 1 m/s 648 mmHg 37%
    22:00 +16°C° 0 mm 1 m/s 648 mmHg 39%
    23:00 +16°C° 0 mm 1 m/s 648 mmHg 40%

    23 August, Joi

    Timp Temperatura Precipitaţii Vânt Presiune Umiditate
    00:00 +15°C° 0 mm 1 m/s 648 mmHg 41%
    01:00 +15°C° 0 mm 1 m/s 648 mmHg 42%
    02:00 +14°C° 0 mm 1 m/s 648 mmHg 42%
    03:00 +14°C° 0 mm 1 m/s 648 mmHg 42%
    04:00 +14°C° 0 mm 1 m/s 648 mmHg 42%
    05:00 +15°C° 0 mm 1 m/s 648 mmHg 39%
    06:00 +18°C° 0 mm 1 m/s 649 mmHg 36%
    07:00 +20°C° 0 mm 1 m/s 650 mmHg 33%
    08:00 +23°C° 0 mm 1 m/s 650 mmHg 27%
    09:00 +26°C° 0 mm 2 m/s 651 mmHg 21%
    10:00 +30°C° 0 mm 2 m/s 652 mmHg 14%
    11:00 +30°C° 0 mm 3 m/s 651 mmHg 14%
    12:00 +32°C° 0 mm 4 m/s 651 mmHg 13%
    13:00 +33°C° 0 mm 4 m/s 651 mmHg 12%
    14:00 +32°C° 0 mm 4 m/s 650 mmHg 13%
    15:00 +32°C° 0 mm 4 m/s 650 mmHg 14%
    16:00 +30°C° 0 mm 4 m/s 649 mmHg 14%
    17:00 +27°C° 0 mm 3 m/s 649 mmHg 20%
    18:00 +23°C° 0 mm 2 m/s 648 mmHg 26%
    19:00 +20°C° 0 mm 1 m/s 647 mmHg 32%
    20:00 +19°C° 0 mm 1 m/s 647 mmHg 34%
    21:00 +16°C° 0 mm 1 m/s 647 mmHg 36%
    22:00 +15°C° 0 mm 1 m/s 647 mmHg 39%
    23:00 +15°C° 0 mm 1 m/s 647 mmHg 39%
    Arată mai mult